User: anonymous
Location: Unspecified
(0.0000°N, 0.0000°E)
Time: 23:16:55
(UTC+02:00)
Language:

CZ-4 R/B - Orbit

View from above orbital plane
View from above orbital plane
View from above satellite
View from above satellite

Ground track
Ground track

The orbit data is extracted from the following two-line orbital elements,

1 28059U 03049C   14244.49380201  .00000104  00000-0  37401-4 0  1415
2 28059 098.6905 085.8541 0051631 110.9073 305.0951 14.52145529575661
Epoch (UTC): 01 September 2014 11:51:04
Eccentricity: 0.0051631
inclination: 98.6905°
perigee height: 682 km
apogee height: 755 km
right ascension of ascending node: 85.8541°
argument of perigee: 110.9073°
revolutions per day: 14.52145529
mean anomaly at epoch: 305.0951°
orbit number at epoch: 57566

The dashed part of the orbit path shows where the satellite is in the earth's shadow,  

DLR